Погода в Илети

Россия / Республика Марий Эл     56°34′18″N   49°30′03″E
темп.,
°C
ветер,
м/с
пор.,
м/с
влажн.,
%
обл.,
%
осадки,
мм/ч
давл.,
гПа
погр.,
м
19 апреля, пн
пн1900:00+1всв5137098 0.0 1028618
03:000всв5136394 0.0 1029535
06:00−1всв5126172 0.0 1030528
09:00+4в7104016 0.0 10311143
12:00+6в79271 0.0 10311515
15:00+7в79240 0.0 10301693
18:00+5всв510360 0.0 1030754
21:00+2в412480 0.0 1032385
20 апреля, вт
вт2000:000в413530 0.0 1032362
03:00−1в411530 0.0 1033306
06:000в410500 0.0 1033336
09:00+6вюв57360 0.0 10331051
12:00+8вюв68280 0.0 10321376
15:00+9вюв57270 0.0 10311459
18:00+7вюв49380 0.0 1029489
21:00+3вюв41250100 0.0 1030318
21 апреля, ср
ср2100:00+2вюв5145232 0.0 1029378
03:00+2вюв51554100 0.0 1028416
06:00+3юв71650100 0.0 1026754
09:00+6юв81641100 0.0 1025930
12:00+8ююв81639100 0.1 10231151
15:00+4ююв81761100 0.4 10241067
18:00+2ююв71794100 0.6 1023789
21:00+2ююв61596100 1.2 1023679
22 апреля, чт
чт2200:00+2ююв61396100 0.1 1023647
03:00+1ююв51297100 0.4 1023579
06:00+1ююв51197100 0.4 1023550
09:00+2ююв51196100 0.5 1023471
12:00+4ю51196100 0.3 1023601
15:00+7ю5987100 0.3 1023694
18:00+7ююв41091100 0.1 1024533
21:00+6ю51295100 0.1 1024494
23 апреля, пт
пт2300:00+6ю5119599 0.0 1024445
03:00+5ю489680 0.0 1025309
06:00+5ю379669 0.0 1025231
09:00+6ю3791100 0.0 1026292
12:00+11ю45686 0.0 1025754
15:00+13ююв445685 0.1 10251250
18:00+10ююв377310 0.0 1025342
21:00+7юв379128 0.0 1025183